This is the latest recevied weather packets stored in our database for station/object KC4GS-13. If no packets are shown the sender has not sent any weather packets the latest 10 day(s).
| Time | Temp. | Humidity | Pressure | Rain* | Wind** | Luminosity | Snow |
|---|---|---|---|---|---|---|---|
| 1787604773 | 35.56° C | 34% | 1015.1 hPa | 0 mm | - | 526 W/m² | - |
| 1787604469 | 35.56° C | 34% | 1014.9 hPa | 0 mm | - | 534 W/m² | - |
| 1787604169 | 35.56° C | 35% | 1015 hPa | 0 mm | - | 555 W/m² | - |
| 1787603864 | 35° C | 35% | 1015.2 hPa | 0 mm | - | 580 W/m² | - |
| 1787603558 | 35.56° C | 35% | 1015.2 hPa | 0 mm | - | 586 W/m² | - |
| 1787603254 | 35.56° C | 35% | 1015.3 hPa | 0 mm | - | 606 W/m² | - |
| 1787602950 | 36.11° C | 34% | 1015.5 hPa | 0 mm | - | 589 W/m² | - |
| 1787602645 | 36.11° C | 35% | 1015.5 hPa | 0 mm | - | 581 W/m² | - |
| 1787602341 | 36.11° C | 34% | 1015.5 hPa | 0 mm | - | 599 W/m² | - |
| 1787602040 | 36.11° C | 33% | 1015.7 hPa | 0 mm | - | 609 W/m² | - |
| 1787601734 | 36.11° C | 33% | 1015.7 hPa | 0 mm | - | 653 W/m² | - |
| 1787601429 | 35.56° C | 34% | 1015.5 hPa | 0 mm | - | 653 W/m² | - |
| 1787601124 | 35.56° C | 33% | 1015.4 hPa | 0 mm | - | 678 W/m² | - |
| 1787600822 | 35.56° C | 32% | 1015.7 hPa | 0 mm | - | 682 W/m² | - |
| 1787600518 | 35.56° C | 34% | 1015.7 hPa | 0 mm | - | 698 W/m² | - |
| 1787600214 | 35.56° C | 34% | 1015.7 hPa | 0 mm | - | 691 W/m² | - |
| 1787599910 | 35.56° C | 34% | 1015.7 hPa | 0 mm | - | 663 W/m² | - |
| 1787599606 | 35° C | 36% | 1015.9 hPa | 0 mm | - | 640 W/m² | - |
| 1787599303 | 35.56° C | 35% | 1015.9 hPa | 0 mm | - | 645 W/m² | - |
| 1787598998 | 35.56° C | 35% | 1015.9 hPa | 0 mm | - | 698 W/m² | - |
| 1787598693 | 35.56° C | 36% | 1016.1 hPa | 0 mm | - | 695 W/m² | - |
| 1787598393 | 35.56° C | 36% | 1016 hPa | 0 mm | - | 684 W/m² | - |
| 1787598090 | 35° C | 37% | 1016.1 hPa | 0 mm | - | 665 W/m² | - |
| 1787597785 | 35° C | 38% | 1016.2 hPa | 0 mm | - | 724 W/m² | - |
| 1787597483 | 35° C | 37% | 1016.3 hPa | 0 mm | - | 700 W/m² | - |
* Rain latest hour (hover to see other rain measurements)
** Current wind speed in m/s (hover to see current wind gust speed)